Torna al catalogo

COSMOS 876

AttivoMilitareLEO
NORAD 9593·PAYLOAD·🇷🇺 Russia

Lanciato Dec 7, 1976 da Plesetsk Cosmodrome

Loading…

Prossimi Passaggi (prossime 24 ore)

TLE

AggiornatoSource: Space-Track

Epoca: Sep 14, 2026, 09:43 UTC

1 09593U 76118F   26257.40532708 -.00000030  00000-0 -10475-3 0  9995
2 09593  74.0276 239.0004 0047025  25.6695  46.8670 12.41329023255272

Traccia COSMOS 876 in tempo reale con AllMySat

Download on the App Store